sat.trackr.live / text

‹ back to catalog

STARLINK-2504

NORAD 48328 · 2021-036BE

PAYLOAD ACTIVE UNKNOWN

§ Identity

Operator
Country
US
Launch date
2021-04-29
Launch site
AFETR
Launch vehicle
Mass (kg)
RCS (m²)

Purposes: comms

External: N2YO · Heavens-Above · Gunter

§ Orbital elements

Epoch: 2026-09-19T18:39:49.894848Z

Period
94.01 min
Inclination
53.1589°
Eccentricity
0.0001285
Mean motion
15.31695436 rev/d
Perigee alt
469.9 km
Apogee alt
471.6 km
Semi-major
6,848.9 km
B*
-2.5118e-6
RAAN
277.7365°
Arg perigee
88.5596°
Mean anomaly
271.5553°
Rev number
29,777

§ Raw data

STARLINK-25041 48328U 21036BE  26262.77766082 -.00000443  00000+0 -25118-5 0  99922 48328  53.1589 277.7365 0001285  88.5596 271.5553 15.31695436297775

JSON: /api/v1/satellites/48328 · /tle

For live sub-satellite position, see the globe view (requires WebGL).

§ Visibility from observer

Set your observer location to see the next 7 days of passes ≥ 10°. The values pass through the URL so the page stays shareable.

No JS? Fill the form by hand. The geolocation button needs JavaScript.